Flag for U.S.A. Weather past 2 weeks in Bryan – College Station, Texas, U.S.A.

Now
68 °F

Passing clouds.


Feels Like: 68 °F
Forecast: 66 / 76 °F
Wind: 3 mph from North

Location: Easterwood Field

Current Time: Apr 18, 2015 at 7:05:29 AM

Latest Report: Apr 18, 2015 at 5:53 AM


Visibility: 8 mi

Pressure: 29.84 "Hg

Humidity: 93%

Dew point: 66 °F

Location of Bryan – College StationLocation

Historic Weather in Bryan – College Station — Graph

°F

Bryan – College Station temperature yesterday

Maximum temperature yesterday: 79 °F (at 1:53 PM)
Minimum temperature yesterday: 65 °F (at 4:53 AM)
Average temperature yesterday: 70 °F

Past Weeks' High & Low Weather Summary

 TemperatureHumidityPressure
High84 °F (Apr 7, 1:53 PM)97% (Apr 5, 2:53 PM)30.32 "Hg (Apr 5, 2:53 PM)
Low54 °F (Apr 15, 5:53 AM)44% (Apr 4, 4:53 PM)29.79 "Hg (Apr 9, 5:53 AM)
Average70 °F78%29.97 "Hg
* Reported Apr 3 5:53 AM — Apr 18 5:53 AM, Bryan – College Station, Weather by CustomWeather, © 2015

Note: Actual official high and low records may vary slightly from our data, if they occured in-between our weather recording intervals... More about our weather records

Advertising

Bryan – College Station weather history for previous 24 hours

 ConditionsComfort  
Time TempWeatherWind HumidityBarometerVisibility
5:53 AM
Sat, Apr 18
68 °FPassing clouds.3 mph93%29.84 "Hg8 mi
4:59 AM68 °FOvercast.3 mph93%29.85 "Hg8 mi
3:53 AM69 °FLow clouds.5 mph93%29.85 "Hg9 mi
2:53 AM69 °FOvercast.7 mph93%29.86 "Hg9 mi
1:53 AM69 °FPassing clouds.7 mph93%29.86 "Hg8 mi
12:53 AM69 °FPartly cloudy.5 mph93%29.90 "Hg7 mi
11:53 PM
Fri, Apr 17
68 °FPassing clouds.6 mph90%29.90 "Hg10 mi
10:53 PM68 °FOvercast.9 mph87%29.91 "Hg10 mi
9:53 PM68 °FClear.No wind84%29.90 "Hg10 mi
8:53 PM67 °FLight rain. Broken clouds.10 mph90%29.87 "Hg10 mi
8:04 PM71 °FThunderstorms. Fog.10 mph93%29.89 "Hg4 mi
6:53 PM73 °FThundershowers. Fog.5 mph88%29.89 "Hg6 mi
5:53 PM75 °FPartly sunny.10 mph79%29.83 "Hg10 mi
4:53 PM77 °FPartly sunny.8 mph71%29.88 "Hg10 mi
3:53 PM78 °FMostly cloudy.6 mph69%29.88 "Hg10 mi
2:53 PM77 °FOvercast.9 mph71%29.89 "Hg10 mi
1:53 PM79 °FOvercast.10 mph65%29.91 "Hg10 mi
12:53 PM78 °FBroken clouds.6 mph64%29.94 "Hg10 mi
11:53 AM77 °FPartly sunny.7 mph66%29.95 "Hg10 mi
10:53 AM74 °FPartly sunny.6 mph76%29.96 "Hg10 mi
9:53 AM69 °FOvercast.6 mph84%29.96 "Hg10 mi
8:53 AM68 °FPartly sunny.3 mph84%29.94 "Hg10 mi
7:53 AM65 °FOvercast.3 mph94%29.94 "Hg10 mi
Weather by CustomWeather, © 2015

See weather overviewHow to use our weather pages